Weather History for KLWC - May, 2013

Change the Weather History Date:

Wednesday, May 29, 2013

  Actual Average Record
Temperature  
Mean Temperature 73 °F 69 °F  
Max Temperature 81 °F 81 °F 93 °F (2000)
Min Temperature 65 °F 58 °F 43 °F (1997)
Degree Days  
Heating Degree Days 0 1  
Month to date heating degree days 156 103  
Since 1 July heating degree days 5270 5082  
Cooling Degree Days 8 5  
Month to date cooling degree days 105 84  
Year to date cooling degree days 118 107  
Growing Degree Days 24 (Base 50)    
Moisture  
Dew Point 65 °F    
Average Humidity 75    
Maximum Humidity 87    
Minimum Humidity 62    
Precipitation  
Precipitation 0.07 in 0.17 in 1.82 in (2006)
Month to date precipitation 4.82 4.83  
Year to date precipitation 12.94 13.53  
Sea Level Pressure  
Sea Level Pressure 29.70 in    
Wind  
Wind Speed 16 mph (SSE)    
Max Wind Speed 30 mph    
Max Gust Speed 40 mph    
Visibility 10 miles    
Events Rain , Thunderstorm    
T = Trace of Precipitation, MM = Missing Value Source: NWS Daily Summary

Daily Weather History Graph

Daily Weather History Graph

Search for Another Location

Airport or City:

Trip Planner

Search our weather history database for the weather conditions in past years. The results will help you decide how hot, cold, wet, or windy it might be!

Date:

Astronomy

May. 29, 2013 Rise Set
Actual Time 5:58 AM CDT 8:38 PM CDT
Civil Twilight 5:26 AM CDT 9:10 PM CDT
Nautical Twilight 4:47 AM CDT 9:49 PM CDT
Astronomical Twilight 4:04 AM CDT 10:33 PM CDT
Moon 12:03 AM CDT (5/29) 10:57 AM CDT (5/29)
Length of Visible Light 15h 43m
Length of Day
14h 40m
Waning Gibbous, 73% of the Moon is Illuminated
May 29
Waning Gibbous
May 31
Last Quarter
Jun 8
New
Jun 16
First Quarter
Jun 23
Full

Hourly Weather History & Observations

Time (CDT) Temp. Heat Index Dew Point Humidity Pressure Visibility Wind Dir Wind Speed Gust Speed Precip Events Conditions
12:52 AM 69.1 °F - 64.0 °F 84% 29.78 in 10.0 mi ENE 13.8 mph - N/A   Overcast
1:52 AM 66.9 °F - 63.0 °F 87% 29.76 in 10.0 mi ENE 15.0 mph - N/A   Overcast
2:52 AM 73.0 °F - 66.0 °F 79% 29.74 in 10.0 mi SE 13.8 mph - N/A   Partly Cloudy
3:52 AM 73.0 °F - 64.9 °F 76% 29.73 in 10.0 mi SE 13.8 mph - N/A   Overcast
4:52 AM 73.0 °F - 64.0 °F 73% 29.73 in 10.0 mi SSE 12.7 mph - N/A   Scattered Clouds
5:52 AM 71.1 °F - 64.0 °F 78% 29.75 in 10.0 mi SSE 10.4 mph - N/A   Partly Cloudy
6:52 AM 72.0 °F - 64.0 °F 76% 29.76 in 10.0 mi SSE 9.2 mph - N/A   Partly Cloudy
7:52 AM 73.9 °F - 64.9 °F 73% 29.75 in 10.0 mi SSE 10.4 mph - N/A   Scattered Clouds
8:52 AM 75.9 °F - 66.0 °F 71% 29.75 in 10.0 mi SSE 16.1 mph 20.7 mph N/A   Mostly Cloudy
9:52 AM 79.0 °F - 66.9 °F 66% 29.73 in 10.0 mi South 20.7 mph 27.6 mph N/A   Partly Cloudy
10:52 AM 77.0 °F - 66.9 °F 71% 29.73 in 10.0 mi South 15.0 mph 23.0 mph 0.00 in   Scattered Clouds
11:52 AM 79.0 °F - 66.0 °F 64% 29.72 in 10.0 mi South 18.4 mph 34.5 mph N/A   Mostly Cloudy
12:52 PM 77.0 °F - 64.9 °F 66% 29.74 in 10.0 mi South 16.1 mph 32.2 mph N/A   Overcast
1:52 PM 79.0 °F - 66.0 °F 64% 29.72 in 10.0 mi South 19.6 mph 31.1 mph N/A   Overcast
2:52 PM 81.0 °F 83.3 °F 66.9 °F 62% 29.70 in 10.0 mi South 17.3 mph 36.8 mph N/A   Mostly Cloudy
3:52 PM 80.1 °F 82.1 °F 66.0 °F 62% 29.67 in 10.0 mi South 23.0 mph 33.4 mph N/A   Overcast
4:52 PM 78.1 °F - 66.0 °F 66% 29.67 in 10.0 mi South 19.6 mph 28.8 mph N/A   Overcast
5:52 PM 77.0 °F - 64.9 °F 66% 29.64 in 10.0 mi South 20.7 mph 31.1 mph N/A   Overcast
6:52 PM 77.0 °F - 64.0 °F 64% 29.63 in 10.0 mi South 18.4 mph 26.5 mph N/A   Overcast
7:52 PM 75.9 °F - 64.9 °F 69% 29.66 in 10.0 mi South 10.4 mph - 0.00 in Rain Light Rain
8:52 PM 75.9 °F - 64.9 °F 69% 29.67 in 10.0 mi South 13.8 mph 21.9 mph 0.00 in   Overcast
9:52 PM 73.9 °F - 66.0 °F 76% 29.65 in 10.0 mi SSE 10.4 mph - 0.00 in Rain Light Rain
10:15 PM 75.2 °F - 66.2 °F 73% 29.66 in 10.0 mi SSE 13.8 mph - 0.00 in Thunderstorm Overcast
10:28 PM 73.4 °F - 66.2 °F 78% 29.65 in 4.0 mi SSE 20.7 mph 31.1 mph 0.06 in Rain , Thunderstorm Rain
10:52 PM 73.0 °F - 64.0 °F 73% 29.63 in 10.0 mi South 18.4 mph 28.8 mph 0.06 in   Partly Cloudy
11:52 PM 69.1 °F - 61.0 °F 75% 29.61 in 10.0 mi SSE 16.1 mph 28.8 mph 0.01 in Rain Light Rain